Regional Weather Roundup
Issued by NWS

Home | Current Version | Previous Version | Graphics & Text | Print | Product List | Glossary On
Versions: 1 2 3 4 5 6 7 8 9 10 11 12 13 14 15 16 17 18 19 20 21 22 23 24 25 26 27 28 29 30 31 32 33 34 35 36 37 38 39 40 41 42 43 44 45 46 47 48 49 50
000
ASUS43 KMKX 242021
RWRWI

WISCONSIN REGIONAL WEATHER ROUNDUP
NATIONAL WEATHER SERVICE MILWAUKEE/SULLIVAN WI
300 PM CDT THU APR 24 2014

NOTE: "FAIR" INDICATES FEW OR NO CLOUDS BELOW 12,000 FEET WITH NO
SIGNIFICANT WEATHER AND/OR OBSTRUCTIONS TO VISIBILITY.

WIZ001-002-006>008-014>016-023>028-242100-
NORTHWEST WISCONSIN

CITY           SKY/WX    TMP DP  RH WIND       PRES   REMARKS
SUPERIOR ARPT  LGT SNOW  32  32 100 NE9G17    29.80F WCI  24
ASHLAND        LGT SNOW  35  34  96 NE10      29.84F FOG     WCI  27
HAYWARD        LGT RAIN  35  27  72 E10       29.75F WCI  27
SIREN          DRIZZLE   39  38  97 E5        29.73F
RICE LAKE      RAIN      41  39  94 E9        29.74S
LADYSMITH      LGT RAIN  40  38  92 E12       29.76F WCI  33
EAU CLAIRE     LGT RAIN  43  41  93 SE7       29.70F FOG
MENOMONIE      DRIZZLE   42  42  99 E9        29.72S
NEW RICHMOND   DRIZZLE   42  41  98 SE5       29.70F
OSCEOLA        LGT RAIN  42  42 100 E6        29.73F
$$

WIZ003>005-009-010-017-018-242100-
NORTH CENTRAL WISCONSIN

CITY           SKY/WX    TMP DP  RH WIND       PRES   REMARKS
WOODRUFF       LGT SNOW  37  34  92 SE9G17    29.82F WCI  30
RHINELANDER    MIX PCPN  33  32  96 E17       29.82F WCI  22
EAGLE RIVER    LGT SNOW  33  33 100 SE10G16   29.85F VSB 3/4 WCI  25
LAND O LAKES   LGT SNOW  36  35  96 SE10G17   29.87F WCI  28
PHILLIPS       LGT RAIN  35  33  94 E12G17    29.78F WCI  27
TOMAHAWK       LGT RAIN  37  35  92 E6        29.81S WCI  32
MEDFORD        RAIN      39  38  94 E15G25    29.75F WCI  31
MERRILL        LGT RAIN  40  38  92 SE14      29.80S WCI  32
$$

WIZ029-030-035-036-043>047-242100-
CENTRAL WISCONSIN

CITY           SKY/WX    TMP DP  RH WIND       PRES   REMARKS
WAUSAU         LGT RAIN  41  40  96 SE16G28   29.78F FOG
MOSINEE        LGT RAIN  39  39 100 E15G24    29.80S WCI  31
MARSHFIELD     RAIN      42  38  85 SE18G28   29.75F FOG
STEVENS POINT  RAIN      40  37  89 E17G25    29.79F WCI  31
WAUPACA        RAIN      45  39  81 E20G25    29.83F
WAUTOMA        LGT RAIN  44  40  86 E16       29.80F FOG
WISC RAPIDS    LGT RAIN  43  39  86 E15G24    29.78F FOG
CAMP DOUGLAS   LGT RAIN  45  45 100 E12       29.72F
$$

WIZ011>013-019>022-031-037>040-048>050-242100-
NORTHEAST WISCONSIN

CITY           SKY/WX    TMP DP  RH WIND       PRES   REMARKS
ANTIGO         CLOUDY    38  36  93 SE21G30   29.81F WCI  27
STURGEON BAY   CLOUDY    39  34  81 E13       29.95F WCI  32
GREEN BAY      LGT RAIN  43  38  82 E16       29.90F
MANITOWOC      LGT RAIN  42  37  82 E18       29.90F
APPLETON       DRIZZLE   43  36  75 E14G21    29.87F FOG
CLINTONVILLE   CLOUDY    43  37  81 E15       29.87F
OSHKOSH        LGT RAIN  44  38  79 E14G24    29.85F
$$

WIZ032>034-041-042-053>061-242100-
SOUTHWEST WISCONSIN

CITY           SKY/WX    TMP DP  RH WIND       PRES   REMARKS
LA CROSSE      CLOUDY    46  42  86 E9        29.68F
SPARTA         LGT RAIN  44  42  94 E6        29.71F
VIROQUA        CLOUDY    46  46  98 SE16      29.67F
BOSCOBEL       RAIN      52  48  86 CALM      29.69F FOG
PRAIRIE DU CHI DRIZZLE   52  46  80 SE10      29.67F
PLATTEVILLE    CLOUDY    54  47  76 S16G22    29.72F
$$

WIZ056-057-062-063-064-067-068-242100-
SOUTH CENTRAL WISCONSIN

CITY           SKY/WX    TMP DP  RH WIND       PRES   REMARKS
BARABOO/DELLS  CLOUDY    49  43  81 E9        29.73F
LONE ROCK      LGT RAIN  52  47  83 E12       29.71F
WATERTOWN      DRIZZLE   53  42  65 SE14      29.80F
MADISON        LGT RAIN  56  43  61 SE18      29.77F
MIDDLETON      CLOUDY    55  43  63 SE21G26   29.75F
MONROE         LGT RAIN  51  51  97 S16       29.75F
JANESVILLE     LGT RAIN  59  41  51 SE12G18   29.79R
$$

WIZ051-052-058>065-066-070>072-242100-
SOUTHEAST WISCONSIN

CITY           SKY/WX    TMP DP  RH WIND       PRES   REMARKS
MILWAUKEE      CLOUDY    51  31  46 SE22G33   29.85F
WAUKESHA       CLOUDY    54  30  40 SE12G22   29.85R
MILWAUKEE/TIMM PTSUNNY   52  28  40 SE16G28   29.85F
RACINE         CLOUDY    50  31  48 SE18G30   29.85F
BURLINGTON     CLOUDY    57  35  43 S15G22    29.82R
KENOSHA        CLOUDY    53  33  46 SE17G26   29.82F
FOND DU LAC    CLOUDY    46  36  68 SE14      29.84F
SHEBOYGAN      CLOUDY    44  35  70 E10G21    29.89F
WEST BEND      LGT RAIN  45  32  61 E9        29.88R
JUNEAU         LGT RAIN  50  34  53 E16       29.82F
$$

LSZ147-162-242100-
LAKE SUPERIOR

STATION/POSITION TIME  TEMP    WIND        PRES    WAVE
                       AIR SEA DIR/SP/G            HT/PER
                 (UTC) (F)     (DEG/KT/KT) (MB)    (FT/S)
DEVILS ISLAND    2000   33      90/ 25/ 28 1012.1F
PORT WING        1900   37      70/  5/ 10 1010.8F
SAXON HARBOR     1900           70/  5/  9 1011.5F
$$

LMZ867-665-643>646-242100-
LAKE MICHIGAN

STATION/POSITION TIME  TEMP    WIND        PRES    WAVE
                       AIR SEA DIR/SP/G            HT/PER
                 (UTC) (F)     (DEG/KT/KT) (MB)    (FT/S)
NORTHPORT PIER   1900   37      CALM  /  4 1016.6F
SISTER BAY       1908   38      CALM  /  3   N/A
KEWAUNEE LAKESHO 2000   38      60/ 11/ 17 1014.1F
SHEBOYGAN LAKESH 2000   40      80/ 16/ 18 1012.6F
PORT WASHINGTON  1900   41     100/ 12/ 16 1012.9F
MILWAUKEE LAKESH 2000   43     130/ 11/ 14   N/A
KENOSHA   LAKESH 2000   44     140/ 18/ 21   N/A
$$

TC  - TEMPERATURE IN CELSIUS
VSB - VISIBILITY IN STATUTE MILES
WCI - WIND CHILL INDEX
HX  - HEAT INDEX




USA.gov is the U.S. government's official web portal to all federal, state and local government web resources and services.